ANIK A1 (TELESAT 1)

导读

ANIK A1(又称TELESAT 1)是加拿大阿尼克(Anik)系列通信卫星的首星,名称在因纽特语中意为“小兄弟”,于1972年11月10日由德尔塔火箭从卡纳维拉尔角发射。它是全球首颗由商业公司运营的地球静止轨道国内通信卫星,采用休斯HS-333平台,携带12路C频段转发器,设计寿命7年,实际服役至1982年7月,超期服役近3年,开启了加拿大商用卫星通信时代。

Basic Information
目录编号:
6278
目录名称:
ANIK A1 (TELESAT 1)
国际标识:
1972-090A
轨道中心:
EARTH
卫星名称:
ANIK A1 (TELESAT 1)
卫星全名:
--
卫星状态:
在轨 (已飞行19604 天)
发射日期:
1972-11-10 UTC
国别 :
加拿大 (CA)
星等 :
--
Orbit Information
数据来源 国际轨道数据
星历时间: 2026-07-13T22:36:10+0800
17小时前
查看轨道信息
半长轴: 42574.886km
偏心率: 0.0015148
轨道倾角: 6.139°
近地点辐角 196.178°
升交点赤经 292.675°
平近点角 251.700°
近地点: 36132.256km
远地点: 36261.242km
周期: 1457.102分钟
每日圈数: 0.988263
Detailed Information
使用方式:
暂无
2D Orbit Map
3D Orbit Map
Orbit Altitude Analysis Chart
Orbit Inclination Analysis Chart
Orbit Comprehensive Analysis Chart
View Comprehensive Chart